Location: Cisewo
(53.3833°N, 14.9000°E)
Time: 06:46:21
(UTC+00:00)

BEESAT 3 - Pass Details

Date: 29 September 2021
Orbit: 481 x 510 km, 64.9° (Epoch: 24 October)

Event Time Altitude Azimuth Distance (km) Brightness Sun altitude
Rises 17:50:09 0° 307° (NW) 2,607 ? -11.0°
Reaches altitude 10° 17:53:00 10° 329° (NNW) 1,728 ? -11.4°
Maximum altitude 17:55:28 16° 9° (N) 1,392 ? -11.8°
Drops below altitude 10° 17:57:56 10° 49° (NE) 1,735 ? -12.2°
Enters shadow 17:58:20 - 53° (NE) 1,839 ? -12.2°
